Weather History for K40J - June, 2013

Change the Weather History Date:

Tuesday, June 25, 2013

  Actual Average (KCTY) Record (KCTY)
Temperature  
Mean Temperature 78 °F 81 °F  
Max Temperature 90 °F 91 °F - ()
Min Temperature 69 °F 70 °F - ()
Degree Days  
Heating Degree Days 0 0  
Month to date heating degree days 0  
Since 1 June heating degree days 0  
Since 1 July heating degree days 1306  
Cooling Degree Days 13 16  
Month to date cooling degree days 368  
Year to date cooling degree days 847  
Since 1 June cooling degree days 368  
Growing Degree Days 28 (Base 50)    
Moisture  
Dew Point 70 °F    
Average Humidity 84    
Maximum Humidity 100    
Minimum Humidity 62    
Precipitation  
Precipitation 0.06 in 0.20 in - ()
Month to date precipitation 4.18  
Year to date precipitation 21.35  
Sea Level Pressure  
Sea Level Pressure 30.12 in    
Wind  
Wind Speed 3 mph (ESE)    
Max Wind Speed 15 mph    
Max Gust Speed 21 mph    
Visibility 10 miles    
Events Rain , Thunderstorm    
T = Trace of Precipitation, MM = Missing Value Source: NWS Daily Summary

Daily Weather History Graph

Daily Weather History Graph

Search for Another Location

Airport or City:

Trip Planner

Search our weather history database for the weather conditions in past years. The results will help you decide how hot, cold, wet, or windy it might be!

Date:

Astronomy

Jun. 25, 2013 Rise Set
Actual Time 6:34 AM EDT 8:39 PM EDT
Civil Twilight 6:07 AM EDT 9:06 PM EDT
Nautical Twilight 5:33 AM EDT 9:40 PM EDT
Astronomical Twilight 4:57 AM EDT 10:15 PM EDT
Moon 10:38 PM EDT (6/25) 9:02 AM EDT (6/25)
Length of Visible Light 14h 59m
Length of Day
14h 04m
Waning Gibbous, 93% of the Moon is Illuminated
Jun 25
Waning Gibbous
Jun 30
Last Quarter
Jul 8
New
Jul 15
First Quarter
Jul 22
Full

Hourly Weather History & Observations

Time (EDT) Temp. Heat Index Dew Point Humidity Pressure Visibility Wind Dir Wind Speed Gust Speed Precip Events Conditions
12:15 AM 75.2 °F - 69.8 °F 83% 30.17 in 10.0 mi East 5.8 mph - N/A   Clear
12:35 AM 73.4 °F - 68.0 °F 83% 30.16 in 10.0 mi ENE 3.5 mph - N/A   Clear
12:53 AM 75.9 °F - 69.1 °F 79% 30.14 in - East 4.6 mph - N/A   Unknown
12:55 AM 73.4 °F - 68.0 °F 83% 30.16 in 10.0 mi East 4.6 mph - N/A   Clear
1:15 AM 73.4 °F - 68.0 °F 83% 30.15 in 10.0 mi East 4.6 mph - N/A   Clear
1:35 AM 73.4 °F - 69.8 °F 88% 30.14 in 10.0 mi East 3.5 mph - N/A   Clear
1:53 AM 75.0 °F - 69.1 °F 82% 30.12 in - Calm Calm - N/A   Unknown
1:55 AM 73.4 °F - 68.0 °F 83% 30.14 in 10.0 mi Calm Calm - N/A   Clear
2:15 AM 71.6 °F - 68.0 °F 88% 30.13 in 10.0 mi Calm Calm - N/A   Clear
2:35 AM 71.6 °F - 68.0 °F 88% 30.13 in 10.0 mi Calm Calm - N/A   Clear
2:53 AM 73.9 °F - 69.1 °F 85% 30.12 in - Calm Calm - N/A   Unknown
2:55 AM 71.6 °F - 68.0 °F 88% 30.13 in 10.0 mi Calm Calm - N/A   Clear
3:15 AM 71.6 °F - 68.0 °F 88% 30.13 in 10.0 mi Calm Calm - N/A   Clear
3:35 AM 71.6 °F - 68.0 °F 88% 30.13 in 10.0 mi Calm Calm - N/A   Clear
3:53 AM 73.0 °F - 69.1 °F 87% 30.11 in - Calm Calm - 0.01 in   Unknown
3:55 AM 71.6 °F - 68.0 °F 88% 30.12 in 10.0 mi Calm Calm - N/A   Clear
4:15 AM 71.6 °F - 68.0 °F 88% 30.12 in 10.0 mi Calm Calm - N/A   Clear
4:35 AM 71.6 °F - 68.0 °F 88% 30.12 in 10.0 mi Calm Calm - N/A   Clear
4:53 AM 73.0 °F - 69.1 °F 87% 30.11 in - Calm Calm - N/A   Unknown
4:55 AM 69.8 °F - 68.0 °F 94% 30.12 in 10.0 mi Calm Calm - N/A   Clear
5:15 AM 69.8 °F - 68.0 °F 94% 30.12 in 10.0 mi Calm Calm - N/A   Clear
5:35 AM 69.8 °F - 68.0 °F 94% 30.12 in 10.0 mi Calm Calm - N/A   Clear
5:53 AM 72.0 °F - 68.0 °F 87% 30.11 in - Calm Calm - N/A   Unknown
5:55 AM 69.8 °F - 68.0 °F 94% 30.13 in 10.0 mi Calm Calm - N/A   Clear
6:15 AM 69.8 °F - 68.0 °F 94% 30.13 in 10.0 mi Calm Calm - N/A   Clear
6:35 AM 69.8 °F - 68.0 °F 94% 30.13 in 10.0 mi Calm Calm - N/A   Clear
6:53 AM 72.0 °F - 69.1 °F 91% 30.12 in - Calm Calm - 0.01 in   Unknown
6:55 AM 69.8 °F - 68.0 °F 94% 30.13 in 10.0 mi ENE 3.5 mph - N/A   Clear
7:15 AM 69.8 °F - 69.8 °F 100% 30.14 in 10.0 mi Calm Calm - N/A   Clear
7:35 AM 71.6 °F - 69.8 °F 94% 30.14 in 10.0 mi Calm Calm - N/A   Clear
7:53 AM 75.0 °F - 70.0 °F 84% 30.14 in - Calm Calm - N/A   Unknown
7:55 AM 73.4 °F - 69.8 °F 88% 30.15 in 7.0 mi East 3.5 mph - N/A   Clear
8:15 AM 73.4 °F - 71.6 °F 94% 30.15 in 10.0 mi East 4.6 mph - N/A   Clear
8:35 AM 75.2 °F - 71.6 °F 89% 30.15 in 10.0 mi East 5.8 mph - N/A   Clear
8:53 AM 79.0 °F - 72.0 °F 79% 30.14 in - ESE 4.6 mph - N/A   Unknown
8:55 AM 77.0 °F - 71.6 °F 83% 30.16 in 10.0 mi ESE 4.6 mph - N/A   Clear
9:15 AM 78.8 °F - 71.6 °F 78% 30.16 in 10.0 mi SE 4.6 mph - N/A   Clear
9:35 AM 80.6 °F 85.4 °F 73.4 °F 79% 30.16 in 10.0 mi East 3.5 mph - N/A   Clear
9:53 AM 82.9 °F 89.4 °F 73.9 °F 74% 30.15 in - ESE 3.5 mph - N/A   Unknown
9:55 AM 80.6 °F 85.4 °F 73.4 °F 79% 30.16 in 10.0 mi Calm Calm - N/A   Clear
10:15 AM 82.4 °F 88.2 °F 73.4 °F 74% 30.16 in 10.0 mi South 3.5 mph - N/A   Clear
10:35 AM 82.4 °F 88.2 °F 73.4 °F 74% 30.16 in 10.0 mi SSE 4.6 mph - N/A   Clear
10:53 AM 87.1 °F 96.3 °F 75.0 °F 67% 30.14 in - Variable 3.5 mph - N/A   Unknown
10:55 AM 84.2 °F 90.9 °F 73.4 °F 70% 30.16 in 10.0 mi SW 5.8 mph - N/A   Scattered Clouds
11:15 AM 82.4 °F 87.2 °F 71.6 °F 70% 30.16 in 10.0 mi WSW 4.6 mph - N/A   Mostly Cloudy
11:35 AM 84.2 °F 89.6 °F 71.6 °F 66% 30.16 in 10.0 mi West 3.5 mph - N/A   Mostly Cloudy
11:53 AM 87.1 °F 94.5 °F 73.0 °F 63% 30.14 in - Calm Calm - N/A   Unknown
11:55 AM 84.2 °F 89.6 °F 71.6 °F 66% 30.15 in 10.0 mi Calm Calm - N/A   Mostly Cloudy
12:15 PM 87.8 °F 95.6 °F 73.4 °F 62% 30.15 in 10.0 mi West 9.2 mph - N/A Thunderstorm Scattered Clouds
12:35 PM 80.6 °F 84.6 °F 71.6 °F 74% 30.14 in 10.0 mi SW 12.7 mph - N/A Thunderstorm Mostly Cloudy
12:50 PM 78.8 °F - 69.8 °F 74% 30.12 in - SSE 6.9 mph - 0.02 in   Unknown
12:53 PM 78.1 °F - 71.1 °F 79% 30.12 in - SE 4.6 mph - 0.02 in   Unknown
12:55 PM 77.0 °F - 69.8 °F 78% 30.13 in 10.0 mi Calm Calm - 0.01 in Rain , Thunderstorm Light Thunderstorms and Rain
1:15 PM 77.0 °F - 71.6 °F 83% 30.13 in 10.0 mi Calm Calm - N/A Rain , Thunderstorm Light Thunderstorms and Rain
1:35 PM 77.0 °F - 69.8 °F 78% 30.14 in 10.0 mi South 10.4 mph - N/A Rain , Thunderstorm Light Thunderstorms and Rain
1:53 PM 78.1 °F - 72.0 °F 81% 30.13 in - South 15.0 mph 19.6 mph N/A   Unknown
1:55 PM 75.2 °F - 71.6 °F 89% 30.14 in 10.0 mi South 12.7 mph 20.7 mph N/A Rain , Thunderstorm Light Thunderstorms and Rain
2:15 PM 71.6 °F - 68.0 °F 88% 30.14 in 10.0 mi SSE 10.4 mph - N/A Rain , Thunderstorm Light Thunderstorms and Rain
2:35 PM 71.6 °F - 69.8 °F 94% 30.14 in 10.0 mi SE 8.1 mph - N/A Rain , Thunderstorm Light Thunderstorms and Rain
2:53 PM 75.9 °F - 71.1 °F 85% 30.12 in - East 4.6 mph - N/A   Unknown
2:55 PM 73.4 °F - 71.6 °F 94% 30.13 in 10.0 mi East 3.5 mph - N/A Thunderstorm Thunderstorm
3:15 PM 75.2 °F - 71.6 °F 89% 30.12 in 10.0 mi Calm Calm - N/A Thunderstorm Thunderstorm
3:35 PM 75.2 °F - 71.6 °F 89% 30.12 in 10.0 mi Calm Calm - N/A Thunderstorm Scattered Clouds
3:53 PM 78.1 °F - 72.0 °F 81% 30.11 in - Calm Calm - N/A   Unknown
3:55 PM 75.2 °F - 71.6 °F 89% 30.12 in 10.0 mi Calm Calm - N/A   Scattered Clouds
4:15 PM 75.2 °F - 71.6 °F 89% 30.12 in 10.0 mi Calm Calm - N/A   Clear
4:35 PM 75.2 °F - 71.6 °F 89% 30.12 in 10.0 mi ENE 4.6 mph - N/A Thunderstorm Clear
4:53 PM 75.9 °F - 70.0 °F 82% 30.11 in - NE 9.2 mph 17.3 mph N/A   Unknown
4:55 PM 73.4 °F - 69.8 °F 88% 30.12 in 10.0 mi NE 5.8 mph - N/A   Clear
5:15 PM 73.4 °F - 69.8 °F 88% 30.12 in 10.0 mi NE 5.8 mph - N/A Thunderstorm Clear
5:35 PM 73.4 °F - 68.0 °F 83% 30.10 in 10.0 mi Calm Calm - N/A   Clear
5:53 PM 75.9 °F - 69.1 °F 79% 30.07 in - Variable 3.5 mph - N/A   Unknown
5:55 PM 73.4 °F - 68.0 °F 83% 30.09 in 10.0 mi Calm Calm - N/A   Clear
6:15 PM 73.4 °F - 68.0 °F 83% 30.08 in 10.0 mi Calm Calm - N/A   Clear
6:35 PM 75.2 °F - 68.0 °F 78% 30.09 in 10.0 mi Calm Calm - N/A   Clear
6:53 PM 78.1 °F - 69.1 °F 74% 30.06 in - Calm Calm - N/A   Unknown
6:55 PM 75.2 °F - 68.0 °F 78% 30.08 in 10.0 mi Calm Calm - N/A   Clear
7:15 PM 75.2 °F - 69.8 °F 83% 30.08 in 10.0 mi Calm Calm - N/A   Clear
7:35 PM 75.2 °F - 68.0 °F 78% 30.08 in 10.0 mi Calm Calm - N/A   Clear
7:53 PM 75.9 °F - 69.1 °F 79% 30.07 in - ENE 3.5 mph - N/A   Unknown
7:55 PM 73.4 °F - 68.0 °F 83% 30.08 in 10.0 mi Calm Calm - N/A   Clear
8:15 PM 73.4 °F - 69.8 °F 88% 30.09 in 10.0 mi Calm Calm - N/A   Clear
8:35 PM 73.4 °F - 69.8 °F 88% 30.09 in 10.0 mi Calm Calm - N/A   Clear
8:53 PM 73.9 °F - 69.1 °F 85% 30.08 in - Calm Calm - 0.02 in   Unknown
8:55 PM 71.6 °F - 68.0 °F 88% 30.10 in 10.0 mi Calm Calm - N/A   Clear
9:15 PM 71.6 °F - 68.0 °F 88% 30.10 in 10.0 mi Calm Calm - N/A   Clear
9:35 PM 71.6 °F - 68.0 °F 88% 30.10 in 10.0 mi North 4.6 mph - N/A   Clear
9:53 PM 73.0 °F - 69.1 °F 87% 30.09 in - Calm Calm - N/A   Unknown
9:55 PM 71.6 °F - 68.0 °F 88% 30.10 in 10.0 mi Calm Calm - N/A   Clear
10:15 PM 71.6 °F - 69.8 °F 94% 30.11 in 10.0 mi Calm Calm - N/A   Clear
10:35 PM 71.6 °F - 68.0 °F 88% 30.10 in 10.0 mi ESE 5.8 mph - N/A   Clear
10:53 PM 73.0 °F - 69.1 °F 87% 30.09 in - SE 5.8 mph - N/A   Unknown
10:55 PM 71.6 °F - 69.8 °F 94% 30.10 in 10.0 mi SE 4.6 mph - N/A   Clear
11:15 PM 69.8 °F - 68.0 °F 94% 30.11 in 10.0 mi SE 5.8 mph - N/A   Clear
11:35 PM 71.6 °F - 68.0 °F 88% 30.10 in 10.0 mi SE 5.8 mph - N/A   Clear
11:53 PM 72.0 °F - 69.1 °F 91% 30.09 in - Calm Calm - N/A   Unknown
11:55 PM 69.8 °F - 68.0 °F 94% 30.10 in 10.0 mi Calm Calm - N/A   Clear